Time,TemperatureF,DewpointF,PressureIn,WindDirection,WindDirectionDegrees,WindSpeedMPH,WindSpeedGustMPH,Humidity,HourlyPrecipIn,Conditions,Clouds,dailyrainin,SoftwareType,DateUTC
2013-05-13 00:02:00,36.0,31.0,-100.00,ESE,104,7.0,20.0,83,0.00,,,0.00,,2013-05-13 05:02:00,
2013-05-13 00:12:00,36.0,31.0,-100.00,ESE,104,7.0,20.0,83,0.00,,,0.00,,2013-05-13 05:12:00,
2013-05-13 00:21:00,36.0,31.0,-100.00,ESE,104,7.0,20.0,83,0.00,,,0.00,,2013-05-13 05:21:00,
2013-05-13 00:52:00,35.0,30.0,-100.00,ESE,111,6.0,13.0,83,0.00,,,0.00,,2013-05-13 05:52:00,
2013-05-13 01:01:00,35.0,30.0,-100.00,ESE,111,6.0,13.0,83,0.00,,,0.00,,2013-05-13 06:01:00,
2013-05-13 01:11:00,35.0,30.0,-100.00,ESE,111,6.0,13.0,83,0.00,,,0.00,,2013-05-13 06:11:00,
2013-05-13 01:21:00,35.0,30.0,-100.00,ESE,111,6.0,13.0,83,0.00,,,0.00,,2013-05-13 06:21:00,
2013-05-13 01:52:00,34.0,29.0,-100.00,SE,129,6.0,11.0,83,0.00,,,0.00,,2013-05-13 06:52:00,
2013-05-13 02:01:00,34.0,29.0,-100.00,SE,129,6.0,11.0,83,0.00,,,0.00,,2013-05-13 07:01:00,
2013-05-13 02:11:00,34.0,29.0,-100.00,SE,129,6.0,11.0,83,0.00,,,0.00,,2013-05-13 07:11:00,
2013-05-13 02:22:00,34.0,29.0,-100.00,SE,129,6.0,11.0,83,0.00,,,0.00,,2013-05-13 07:22:00,
2013-05-13 02:52:00,33.0,29.0,-100.00,SE,129,5.0,8.0,86,0.00,,,0.00,,2013-05-13 07:52:00,
2013-05-13 03:02:00,33.0,29.0,-100.00,SE,129,5.0,8.0,86,0.00,,,0.00,,2013-05-13 08:02:00,
2013-05-13 03:11:00,33.0,29.0,-100.00,SE,129,5.0,8.0,86,0.00,,,0.00,,2013-05-13 08:11:00,
2013-05-13 03:21:00,33.0,29.0,-100.00,SE,129,5.0,8.0,86,0.00,,,0.00,,2013-05-13 08:21:00,
2013-05-13 03:52:00,32.0,30.0,-100.00,SE,129,2.0,5.0,91,0.00,,,0.00,,2013-05-13 08:52:00,
2013-05-13 04:01:00,32.0,30.0,-100.00,SE,129,2.0,5.0,91,0.00,,,0.00,,2013-05-13 09:01:00,
2013-05-13 04:11:00,32.0,30.0,-100.00,SE,129,2.0,5.0,91,0.00,,,0.00,,2013-05-13 09:11:00,
2013-05-13 04:21:00,32.0,30.0,-100.00,SE,129,2.0,5.0,91,0.00,,,0.00,,2013-05-13 09:21:00,
2013-05-13 04:52:00,32.0,30.0,-100.00,East,93,4.0,5.0,93,0.00,,,0.00,,2013-05-13 09:52:00,
2013-05-13 05:03:00,32.0,30.0,-100.00,East,93,4.0,5.0,93,0.00,,,0.00,,2013-05-13 10:03:00,
2013-05-13 05:12:00,32.0,30.0,-100.00,East,93,4.0,5.0,93,0.00,,,0.00,,2013-05-13 10:12:00,
2013-05-13 05:22:00,32.0,30.0,-100.00,East,93,4.0,5.0,93,0.00,,,0.00,,2013-05-13 10:22:00,
2013-05-13 05:52:00,31.0,30.0,-100.00,East,98,2.0,5.0,95,0.00,,,0.00,,2013-05-13 10:52:00,
2013-05-13 06:02:00,31.0,30.0,-100.00,East,98,2.0,5.0,95,0.00,,,0.00,,2013-05-13 11:02:00,
2013-05-13 06:12:00,31.0,30.0,-100.00,East,98,2.0,5.0,95,0.00,,,0.00,,2013-05-13 11:12:00,
2013-05-13 06:21:00,31.0,30.0,-100.00,East,98,2.0,5.0,95,0.00,,,0.00,,2013-05-13 11:21:00,
2013-05-13 06:52:00,35.0,32.0,-100.00,ENE,57,2.0,5.0,87,0.00,,,0.00,,2013-05-13 11:52:00,
2013-05-13 07:01:00,35.0,32.0,-100.00,ENE,57,2.0,5.0,87,0.00,,,0.00,,2013-05-13 12:01:00,
2013-05-13 07:11:00,35.0,32.0,-100.00,ENE,57,2.0,5.0,87,0.00,,,0.00,,2013-05-13 12:11:00,
2013-05-13 07:21:00,35.0,32.0,-100.00,ENE,57,2.0,5.0,87,0.00,,,0.00,,2013-05-13 12:21:00,
2013-05-13 07:52:00,42.0,34.0,-100.00,NNW,348,1.0,3.0,73,0.00,,,0.00,,2013-05-13 12:52:00,
2013-05-13 08:01:00,42.0,34.0,-100.00,NNW,348,1.0,3.0,73,0.00,,,0.00,,2013-05-13 13:01:00,
2013-05-13 08:11:00,42.0,34.0,-100.00,NNW,348,1.0,3.0,73,0.00,,,0.00,,2013-05-13 13:11:00,
2013-05-13 08:21:00,42.0,34.0,-100.00,NNW,348,1.0,3.0,73,0.00,,,0.00,,2013-05-13 13:21:00,
2013-05-13 08:52:00,45.0,35.0,-100.00,WSW,246,3.0,6.0,68,0.00,,,0.00,,2013-05-13 13:52:00,
2013-05-13 09:02:00,45.0,35.0,-100.00,WSW,246,3.0,6.0,68,0.00,,,0.00,,2013-05-13 14:02:00,
2013-05-13 09:11:00,45.0,35.0,-100.00,WSW,246,3.0,6.0,68,0.00,,,0.00,,2013-05-13 14:11:00,
2013-05-13 09:22:00,45.0,35.0,-100.00,WSW,246,3.0,6.0,68,0.00,,,0.00,,2013-05-13 14:22:00,
2013-05-13 09:52:00,48.0,33.0,-100.00,SSW,194,4.0,7.0,56,0.00,,,0.00,,2013-05-13 14:52:00,
2013-05-13 10:01:00,48.0,33.0,-100.00,SSW,194,4.0,7.0,56,0.00,,,0.00,,2013-05-13 15:01:00,
2013-05-13 10:11:00,48.0,33.0,-100.00,SSW,194,4.0,7.0,56,0.00,,,0.00,,2013-05-13 15:11:00,
2013-05-13 10:21:00,48.0,33.0,-100.00,SSW,194,4.0,7.0,56,0.00,,,0.00,,2013-05-13 15:21:00,
2013-05-13 10:53:00,51.0,24.0,-100.00,NW,316,4.0,7.0,35,0.00,,,0.00,,2013-05-13 15:53:00,
2013-05-13 11:03:00,51.0,24.0,-100.00,NW,316,4.0,7.0,35,0.00,,,0.00,,2013-05-13 16:03:00,
2013-05-13 11:12:00,51.0,24.0,-100.00,NW,316,4.0,7.0,35,0.00,,,0.00,,2013-05-13 16:12:00,
2013-05-13 11:21:00,51.0,24.0,-100.00,NW,316,4.0,7.0,35,0.00,,,0.00,,2013-05-13 16:21:00,
2013-05-13 11:53:00,53.0,27.0,-100.00,WSW,258,4.0,10.0,37,0.00,,,0.00,,2013-05-13 16:53:00,
2013-05-13 12:02:00,53.0,27.0,-100.00,WSW,258,4.0,10.0,37,0.00,,,0.00,,2013-05-13 17:02:00,
2013-05-13 12:12:00,53.0,27.0,-100.00,WSW,258,4.0,10.0,37,0.00,,,0.00,,2013-05-13 17:12:00,
2013-05-13 12:21:00,53.0,27.0,-100.00,WSW,258,4.0,10.0,37,0.00,,,0.00,,2013-05-13 17:21:00,
2013-05-13 12:54:00,55.0,28.0,-100.00,WSW,238,5.0,10.0,35,0.00,,,0.00,,2013-05-13 17:54:00,
2013-05-13 13:03:00,55.0,28.0,-100.00,WSW,238,5.0,10.0,35,0.00,,,0.00,,2013-05-13 18:03:00,
2013-05-13 13:12:00,55.0,28.0,-100.00,WSW,238,5.0,10.0,35,0.00,,,0.00,,2013-05-13 18:12:00,
2013-05-13 13:23:00,55.0,28.0,-100.00,WSW,238,5.0,10.0,35,0.00,,,0.00,,2013-05-13 18:23:00,
2013-05-13 13:52:00,57.0,29.0,-100.00,WNW,292,3.0,9.0,34,0.00,,,0.00,,2013-05-13 18:52:00,
2013-05-13 14:01:00,57.0,29.0,-100.00,WNW,292,3.0,9.0,34,0.00,,,0.00,,2013-05-13 19:01:00,
2013-05-13 14:11:00,57.0,29.0,-100.00,WNW,292,3.0,9.0,34,0.00,,,0.00,,2013-05-13 19:11:00,
2013-05-13 14:21:00,57.0,29.0,-100.00,WNW,292,3.0,9.0,34,0.00,,,0.00,,2013-05-13 19:21:00,
2013-05-13 14:53:00,59.0,27.0,-100.00,West,268,5.0,10.0,29,0.00,,,0.00,,2013-05-13 19:53:00,
2013-05-13 15:02:00,59.0,27.0,-100.00,West,268,5.0,10.0,29,0.00,,,0.00,,2013-05-13 20:02:00,
2013-05-13 15:11:00,59.0,27.0,-100.00,West,268,5.0,10.0,29,0.00,,,0.00,,2013-05-13 20:11:00,
2013-05-13 15:23:00,59.0,27.0,-100.00,West,268,5.0,10.0,29,0.00,,,0.00,,2013-05-13 20:23:00,
2013-05-13 15:53:00,61.0,28.0,-100.00,WSW,248,4.0,12.0,28,0.00,,,0.00,,2013-05-13 20:53:00,
2013-05-13 16:03:00,61.0,28.0,-100.00,WSW,248,4.0,12.0,28,0.00,,,0.00,,2013-05-13 21:03:00,
2013-05-13 16:14:00,61.0,28.0,-100.00,WSW,248,4.0,12.0,28,0.00,,,0.00,,2013-05-13 21:14:00,
2013-05-13 16:23:00,61.0,28.0,-100.00,WSW,248,4.0,12.0,28,0.00,,,0.00,,2013-05-13 21:23:00,
2013-05-13 16:53:00,60.0,29.0,-100.00,SSW,199,7.0,12.0,31,0.00,,,0.00,,2013-05-13 21:53:00,
2013-05-13 17:02:00,60.0,29.0,-100.00,SSW,199,7.0,12.0,31,0.00,,,0.00,,2013-05-13 22:02:00,
2013-05-13 17:12:00,60.0,29.0,-100.00,SSW,199,7.0,12.0,31,0.00,,,0.00,,2013-05-13 22:12:00,
2013-05-13 17:23:00,60.0,29.0,-100.00,SSW,199,7.0,12.0,31,0.00,,,0.00,,2013-05-13 22:23:00,
2013-05-13 17:52:00,59.0,30.0,-100.00,South,191,7.0,12.0,33,0.00,,,0.00,,2013-05-13 22:52:00,
2013-05-13 18:02:00,59.0,30.0,-100.00,South,191,7.0,12.0,33,0.00,,,0.00,,2013-05-13 23:02:00,
2013-05-13 18:12:00,59.0,30.0,-100.00,South,191,7.0,12.0,33,0.00,,,0.00,,2013-05-13 23:12:00,
2013-05-13 18:23:00,59.0,30.0,-100.00,South,191,7.0,12.0,33,0.00,,,0.00,,2013-05-13 23:23:00,
2013-05-13 18:54:00,58.0,31.0,-100.00,SSE,159,10.0,17.0,36,0.00,,,0.00,,2013-05-13 23:54:00,
2013-05-13 19:02:00,58.0,31.0,-100.00,SSE,159,10.0,17.0,36,0.00,,,0.00,,2013-05-14 00:02:00,
2013-05-13 19:12:00,58.0,31.0,-100.00,SSE,159,10.0,17.0,36,0.00,,,0.00,,2013-05-14 00:12:00,
2013-05-13 19:22:00,58.0,31.0,-100.00,SSE,159,10.0,17.0,36,0.00,,,0.00,,2013-05-14 00:22:00,
2013-05-13 19:52:00,50.0,34.0,-100.00,SE,136,15.0,21.0,53,0.00,,,0.00,,2013-05-14 00:52:00,
2013-05-13 20:02:00,50.0,34.0,-100.00,SE,136,15.0,21.0,53,0.00,,,0.00,,2013-05-14 01:02:00,
2013-05-13 20:11:00,50.0,34.0,-100.00,SE,136,15.0,21.0,53,0.00,,,0.00,,2013-05-14 01:11:00,
2013-05-13 20:21:00,50.0,34.0,-100.00,SE,136,15.0,21.0,53,0.00,,,0.00,,2013-05-14 01:21:00,
2013-05-13 20:53:00,47.0,32.0,-100.00,SE,142,12.0,18.0,55,0.00,,,0.00,,2013-05-14 01:53:00,
2013-05-13 21:02:00,47.0,32.0,-100.00,SE,142,12.0,18.0,55,0.00,,,0.00,,2013-05-14 02:02:00,
2013-05-13 21:11:00,47.0,32.0,-100.00,SE,142,12.0,18.0,55,0.00,,,0.00,,2013-05-14 02:11:00,
2013-05-13 21:22:00,47.0,32.0,-100.00,SE,142,12.0,18.0,55,0.00,,,0.00,,2013-05-14 02:22:00,
2013-05-13 21:52:00,47.0,32.0,-100.00,SE,143,13.0,20.0,56,0.00,,,0.00,,2013-05-14 02:52:00,
2013-05-13 22:01:00,47.0,32.0,-100.00,SE,143,13.0,20.0,56,0.00,,,0.00,,2013-05-14 03:01:00,
2013-05-13 22:11:00,47.0,32.0,-100.00,SE,143,13.0,20.0,56,0.00,,,0.00,,2013-05-14 03:11:00,
2013-05-13 22:21:00,47.0,32.0,-100.00,SE,143,13.0,20.0,56,0.00,,,0.00,,2013-05-14 03:21:00,
2013-05-13 22:53:00,47.0,33.0,-100.00,SE,142,14.0,18.0,57,0.00,,,0.00,,2013-05-14 03:53:00,
2013-05-13 23:03:00,47.0,33.0,-100.00,SE,142,14.0,18.0,57,0.00,,,0.00,,2013-05-14 04:03:00,
2013-05-13 23:13:00,47.0,33.0,-100.00,SE,142,14.0,18.0,57,0.00,,,0.00,,2013-05-14 04:13:00,
2013-05-13 23:23:00,47.0,33.0,-100.00,SE,142,14.0,18.0,57,0.00,,,0.00,,2013-05-14 04:23:00,
2013-05-13 23:53:00,48.0,33.0,-100.00,SSE,150,11.0,21.0,55,0.00,,,0.00,,2013-05-14 04:53:00,